Weather History for KGGP - October, 2012

Change the Weather History Date:

Thursday, October 18, 2012

  Actual Average Record
Temperature  
Mean Temperature 52 °F -  
Max Temperature 59 °F 64 °F - (-1)
Min Temperature 44 °F 40 °F - (-1)
Degree Days  
Heating Degree Days 14    
Growing Degree Days 2 (Base 50)    
Moisture  
Dew Point 42 °F    
Average Humidity 74    
Maximum Humidity 100    
Minimum Humidity 36    
Precipitation  
Precipitation 0.49 in - - ()
Sea Level Pressure  
Sea Level Pressure 29.52 in    
Wind  
Wind Speed 16 mph ()    
Max Wind Speed 28 mph    
Max Gust Speed 36 mph    
Visibility 9.4 miles    
Events Rain    
Averages and records for this station are not official NWS values.
T = Trace of Precipitation, MM = Missing Value Source: Averaged Metar Reports

Daily Weather History Graph

Daily Weather History Graph

Search for Another Location

Airport or City:

Trip Planner

Search our weather history database for the weather conditions in past years. The results will help you decide how hot, cold, wet, or windy it might be!

Date:

Astronomy

Oct. 18, 2012 Rise Set
Actual Time 8:00 AM EDT 6:59 PM EDT
Civil Twilight 7:32 AM EDT 7:27 PM EDT
Nautical Twilight 7:00 AM EDT 7:59 PM EDT
Astronomical Twilight 6:29 AM EDT 8:31 PM EDT
Moon 11:42 AM EDT (10/18) 9:32 PM EDT (10/18)
Length of Visible Light 11h 54m
Length of Day
10h 59m
Waxing Crescent, 14% of the Moon is Illuminated
Oct 18
Waxing Crescent
Oct 21
First Quarter
Oct 29
Full
Nov 6
Last Quarter
Nov 13
New

Hourly Weather History & Observations

Time (EDT) Temp. Windchill Dew Point Humidity Pressure Visibility Wind Dir Wind Speed Gust Speed Precip Events Conditions
12:15 AM 59.0 °F - 51.8 °F 77% 29.44 in 10.0 mi South 26.5 mph 32.2 mph N/A Rain Light Rain
12:35 AM 57.2 °F - 53.6 °F 88% 29.43 in 7.0 mi South 27.6 mph 32.2 mph 0.01 in Rain Light Rain
12:55 AM 55.4 °F - 53.6 °F 94% 29.42 in 7.0 mi South 21.9 mph 32.2 mph 0.04 in Rain Light Rain
1:15 AM 55.4 °F - 53.6 °F 94% 29.41 in 7.0 mi South 18.4 mph 27.6 mph 0.04 in Rain Light Rain
1:35 AM 55.4 °F - 53.6 °F 94% 29.42 in 7.0 mi South 17.3 mph 21.9 mph 0.08 in Rain Rain
1:55 AM 55.4 °F - 53.6 °F 94% 29.42 in 7.0 mi South 18.4 mph 27.6 mph 0.12 in Rain Rain
2:35 AM 55.4 °F - 53.6 °F 94% 29.41 in 7.0 mi South 18.4 mph 24.2 mph 0.05 in Rain Rain
2:55 AM 55.4 °F - 53.6 °F 94% 29.40 in 7.0 mi South 17.3 mph 23.0 mph 0.08 in Rain Light Rain
3:15 AM 55.4 °F - 53.6 °F 94% 29.39 in 7.0 mi South 18.4 mph 23.0 mph 0.04 in Rain Rain
3:35 AM 55.4 °F - 53.6 °F 94% 29.39 in 7.0 mi WSW 12.7 mph 23.0 mph 0.07 in Rain Rain
3:55 AM 51.8 °F - 50.0 °F 94% 29.41 in 10.0 mi West 17.3 mph 23.0 mph 0.09 in Rain Light Rain
4:15 AM 50.0 °F - 48.2 °F 94% 29.41 in 5.0 mi West 17.3 mph - 0.03 in Rain Rain
4:35 AM 50.0 °F - 48.2 °F 94% 29.41 in 5.0 mi West 11.5 mph 17.3 mph 0.06 in Rain Light Rain
4:55 AM 50.0 °F - 50.0 °F 100% 29.42 in 10.0 mi SW 12.7 mph - 0.06 in Rain Rain
5:15 AM 50.0 °F - 48.2 °F 94% 29.42 in 5.0 mi West 13.8 mph 20.7 mph 0.06 in Rain Rain
5:35 AM 50.0 °F - 46.4 °F 87% 29.42 in 10.0 mi West 12.7 mph 17.3 mph 0.10 in Rain Light Rain
5:55 AM 50.0 °F - 46.4 °F 87% 29.43 in 10.0 mi WSW 10.4 mph - 0.10 in   Overcast
6:15 AM 50.0 °F - 46.4 °F 87% 29.45 in 10.0 mi SW 12.7 mph - N/A   Mostly Cloudy
6:35 AM 48.2 °F - 46.4 °F 93% 29.46 in 10.0 mi SW 10.4 mph - N/A   Mostly Cloudy
6:55 AM 46.4 °F 40.7 °F 44.6 °F 93% 29.47 in 10.0 mi SW 12.7 mph - N/A   Scattered Clouds
7:35 AM 46.4 °F 39.5 °F 42.8 °F 87% 29.49 in 10.0 mi WSW 17.3 mph 24.2 mph N/A   Clear
7:55 AM 46.4 °F 40.7 °F 42.8 °F 87% 29.49 in 10.0 mi SW 12.7 mph - N/A   Scattered Clouds
8:15 AM 46.4 °F 40.4 °F 42.8 °F 87% 29.50 in 10.0 mi SW 13.8 mph 20.7 mph N/A   Mostly Cloudy
8:35 AM 44.6 °F 37.8 °F 41.0 °F 87% 29.51 in 10.0 mi SW 15.0 mph 24.2 mph N/A   Clear
8:55 AM 44.6 °F 37.8 °F 41.0 °F 87% 29.51 in 10.0 mi SW 15.0 mph 19.6 mph N/A   Clear
9:15 AM 46.4 °F 41.5 °F 41.0 °F 81% 29.51 in 10.0 mi SW 10.4 mph - N/A   Clear
9:35 AM 46.4 °F 40.7 °F 42.8 °F 87% 29.52 in 10.0 mi SW 12.7 mph - N/A   Clear
10:15 AM 50.0 °F - 42.8 °F 76% 29.54 in 10.0 mi SSW 12.7 mph 16.1 mph N/A   Clear
10:35 AM 50.0 °F - 41.0 °F 71% 29.54 in 10.0 mi SSW 12.7 mph 17.3 mph N/A   Clear
10:55 AM 50.0 °F - 41.0 °F 71% 29.54 in 10.0 mi SSW 13.8 mph - N/A   Clear
11:15 AM 51.8 °F - 41.0 °F 67% 29.54 in 10.0 mi SSW 20.7 mph - N/A   Clear
11:35 AM 53.6 °F - 41.0 °F 62% 29.54 in 10.0 mi SSW 16.1 mph 21.9 mph N/A   Clear
12:15 PM 55.4 °F - 42.8 °F 63% 29.54 in 10.0 mi SSW 21.9 mph 26.5 mph N/A   Clear
12:35 PM 53.6 °F - 41.0 °F 62% 29.54 in 10.0 mi SSW 21.9 mph - N/A   Clear
12:55 PM 55.4 °F - 41.0 °F 58% 29.55 in 10.0 mi SW 24.2 mph 29.9 mph N/A   Clear
1:15 PM 55.4 °F - 41.0 °F 58% 29.54 in 10.0 mi SSW 20.7 mph 29.9 mph N/A   Clear
1:35 PM 55.4 °F - 41.0 °F 58% 29.54 in 10.0 mi SSW 23.0 mph 27.6 mph N/A   Clear
1:55 PM 55.4 °F - 41.0 °F 58% 29.54 in 10.0 mi SW 21.9 mph 27.6 mph N/A   Clear
2:15 PM 57.2 °F - 37.4 °F 48% 29.53 in 10.0 mi SSW 18.4 mph 24.2 mph N/A   Clear
2:35 PM 59.0 °F - 35.6 °F 42% 29.54 in 10.0 mi SW 26.5 mph 33.4 mph N/A   Clear
2:55 PM 55.4 °F - 33.8 °F 44% 29.53 in 10.0 mi SW 20.7 mph 29.9 mph N/A   Scattered Clouds
3:15 PM 59.0 °F - 35.6 °F 42% 29.53 in 10.0 mi SW 21.9 mph 32.2 mph N/A   Mostly Cloudy
3:35 PM 59.0 °F - 32.0 °F 36% 29.53 in 10.0 mi SW 24.2 mph 35.7 mph N/A   Scattered Clouds
3:55 PM 57.2 °F - 33.8 °F 41% 29.53 in 10.0 mi SW 20.7 mph 27.6 mph N/A   Scattered Clouds
4:15 PM 55.4 °F - 32.0 °F 41% 29.54 in 10.0 mi SW 17.3 mph 31.1 mph N/A   Mostly Cloudy
4:35 PM 55.4 °F - 33.8 °F 44% 29.55 in 10.0 mi SW 17.3 mph 26.5 mph N/A   Scattered Clouds
4:55 PM 55.4 °F - 33.8 °F 44% 29.55 in 10.0 mi SW 13.8 mph 25.3 mph N/A   Clear
5:15 PM 53.6 °F - 33.8 °F 47% 29.56 in 10.0 mi SW 17.3 mph - N/A   Clear
5:35 PM 53.6 °F - 33.8 °F 47% 29.56 in 10.0 mi SW 13.8 mph 23.0 mph N/A   Mostly Cloudy
5:55 PM 53.6 °F - 33.8 °F 47% 29.57 in 10.0 mi SW 12.7 mph - N/A   Overcast
6:15 PM 53.6 °F - 32.0 °F 44% 29.58 in 10.0 mi SSW 19.6 mph 26.5 mph N/A   Overcast
6:35 PM 53.6 °F - 30.2 °F 41% 29.59 in 10.0 mi SSW 21.9 mph 29.9 mph N/A   Overcast
6:55 PM 51.8 °F - 32.0 °F 47% 29.61 in 10.0 mi SW 16.1 mph 34.5 mph N/A   Overcast
7:15 PM 51.8 °F - 33.8 °F 50% 29.61 in 10.0 mi WSW 21.9 mph 27.6 mph N/A   Overcast
7:55 PM 50.0 °F - 37.4 °F 62% 29.62 in 10.0 mi WNW 6.9 mph - N/A   Drizzle
8:15 PM 46.4 °F 42.4 °F 41.0 °F 81% 29.63 in 10.0 mi West 8.1 mph - N/A   Drizzle
8:35 PM 44.6 °F 40.7 °F 41.0 °F 87% 29.64 in 10.0 mi West 6.9 mph - N/A Rain Rain
8:55 PM 44.6 °F 41.4 °F 41.0 °F 87% 29.64 in 10.0 mi West 5.8 mph - N/A   Overcast
9:15 PM 44.6 °F 40.2 °F 41.0 °F 87% 29.64 in 10.0 mi West 8.1 mph - N/A   Drizzle
9:35 PM 44.6 °F 39.7 °F 41.0 °F 87% 29.64 in 10.0 mi West 9.2 mph - N/A   Light Drizzle
9:55 PM 44.6 °F 39.2 °F 41.0 °F 87% 29.64 in 10.0 mi WSW 10.4 mph - N/A   Overcast
10:15 PM 44.6 °F 40.2 °F 41.0 °F 87% 29.63 in 10.0 mi West 8.1 mph - N/A   Overcast
10:35 PM 44.6 °F 40.7 °F 41.0 °F 87% 29.63 in 10.0 mi WSW 6.9 mph - N/A   Light Drizzle
10:55 PM 44.6 °F 41.4 °F 41.0 °F 87% 29.63 in 10.0 mi SW 5.8 mph - N/A   Light Drizzle
11:15 PM 44.6 °F 40.7 °F 41.0 °F 87% 29.62 in 10.0 mi SW 6.9 mph - N/A   Drizzle
11:55 PM 44.6 °F 42.2 °F 42.8 °F 93% 29.61 in 10.0 mi South 4.6 mph - N/A   Overcast